[[{"header":{"parameterUnit":"m.s-1","parameterCategory":1,"la1":30.2991,"la2":30.254,"lo1":-89.0895,"lo2":-89.0444,"dy":0.0017,"dx":0.0017,"nx":28,"ny":28,"refTime":"2025-09-17T03:00:00:Z","depth":0,"parameterNumber":2,"parameterNumberName":"U-component_of_WINDS"},"data":[0,0,0,0,0,0,0,0,0,0,0,0,0,0,0,0,0,0,0,0,0,0,0,0,0,0,0,0,0,0,0,0,0,0,0,0,0,0,0,0,0,0,0,0,0,0,0,0,0,0,0,0,0,0,0,0,0,0,-0.423,-0.423,0,-0.4213,-0.4213,-0.4213,-0.4237,-0.4238,-0.4239,-0.4239,-0.422,-0.4219,-0.4218,0,0,0,0,0,0,0,0,0,0,0,0,0,-0.4283,-0.4281,-0.423,-0.423,-0.423,-0.4213,-0.4213,-0.4213,-0.4237,-0.4238,-0.4239,-0.424,-0.4221,-0.4219,-0.4218,0,0,0,0,0,0,0,0,0,0,0,0,0,-0.4262,-0.4281,-0.423,-0.424,-0.4241,-0.4213,-0.4213,-0.4213,-0.4237,-0.4238,-0.4239,-0.424,-0.4221,-0.4219,-0.4217,-0.4179,0,0,-0.4211,-0.421,0,0,0,0,0,0,0,0,-0.4263,-0.426,-0.4239,-0.4239,-0.424,-0.4229,-0.4224,-0.4202,-0.4236,-0.4238,-0.4239,-0.4241,-0.4222,-0.422,-0.4214,-0.4179,-0.4178,-0.4211,-0.421,-0.4209,-0.4209,0,0,0,0,0,0,0,-0.4265,-0.4261,-0.4223,-0.4238,-0.4239,-0.4245,-0.4243,-0.422,-0.4223,-0.4238,-0.424,-0.4237,-0.4222,-0.4216,-0.4214,-0.4177,-0.4211,-0.4209,-0.4208,-0.4207,-0.4111,-0.411,0,0,0,0,0,0,-0.4265,-0.4262,-0.4224,-0.4223,-0.4255,-0.4243,-0.4241,-0.4231,-0.4223,-0.4223,-0.4236,-0.4239,-0.4218,-0.4216,-0.4213,-0.4169,-0.4209,-0.4207,-0.4206,-0.4112,-0.4111,-0.4109,0,0,0,0,0,0,-0.4266,-0.4261,-0.4225,-0.4243,-0.4239,-0.424,-0.4229,-0.423,-0.4223,-0.4222,-0.4222,-0.4229,-0.4219,-0.4216,-0.4188,-0.4168,-0.4206,-0.4205,-0.4114,-0.4112,-0.411,-0.4079,0,0,0,0,0,0,-0.4267,-0.4262,-0.4247,-0.4242,-0.4238,-0.42,-0.4228,-0.4229,-0.422,-0.4223,-0.4215,-0.4215,-0.422,-0.4191,-0.4186,-0.4166,-0.4203,-0.4116,-0.4113,-0.4111,-0.4082,-0.4077,-0.4072,0,0,0,0,0,-0.4269,-0.4239,-0.4247,-0.4242,-0.422,-0.4199,-0.4196,-0.4203,-0.4218,-0.4204,-0.4203,-0.4215,-0.4171,-0.4188,-0.4183,-0.4162,-0.4117,-0.4114,-0.4111,-0.4084,-0.4078,-0.4072,0,0,0,0,0,0,-0.4241,-0.4238,-0.4247,-0.4214,-0.4207,-0.4203,-0.4185,-0.4195,-0.4183,-0.4186,-0.4194,-0.4192,-0.4163,-0.4159,-0.4178,-0.4125,-0.4147,-0.4142,-0.4128,-0.4122,-0.4117,-0.4118,-0.4201,0,0,0,0,0,-0.4231,-0.4214,-0.4213,-0.4184,-0.418,-0.4183,-0.4174,-0.418,-0.4173,-0.4169,-0.4167,-0.4158,-0.4143,-0.4132,-0.4118,-0.4082,-0.4081,-0.4065,-0.406,-0.4056,-0.4052,-0.4034,-0.4027,-0.4099,-0.4099,-0.4099,0,0,-0.421,-0.4206,-0.4195,-0.4178,-0.4173,-0.4156,-0.418,-0.4161,-0.4148,-0.4166,-0.414,-0.4138,-0.4129,-0.4097,-0.4083,-0.4094,-0.4032,-0.4052,-0.4048,-0.4047,-0.403,-0.4023,-0.4017,-0.4097,-0.4097,-0.4098,0,0,-0.4163,-0.4158,-0.4134,-0.4129,-0.4121,-0.4124,-0.4118,-0.4113,-0.4112,-0.4086,-0.41,-0.4085,-0.4057,-0.4051,-0.4044,-0.3995,-0.4006,-0.399,-0.3963,-0.3945,-0.3939,-0.3934,-0.3917,-0.3911,-0.3987,-0.3986,-0.3986,0,-0.4137,-0.4112,-0.412,-0.41,-0.4092,-0.4109,-0.4085,-0.4079,-0.4066,-0.4061,-0.4073,-0.404,-0.4035,-0.4002,-0.3991,-0.3984,-0.3978,-0.3991,-0.394,-0.3935,-0.393,-0.3914,-0.3908,-0.3985,-0.3985,-0.3985,-0.3985,0,-0.4081,-0.4064,-0.4045,-0.4034,-0.4024,-0.4001,-0.4006,-0.3995,-0.4002,-0.4003,-0.3977,-0.3972,-0.3957,-0.395,-0.3956,-0.3918,-0.3925,-0.3938,-0.396,-0.3921,-0.3906,-0.39,-0.3982,-0.3983,-0.3983,-0.3984,0,0,-0.4015,-0.401,-0.4003,-0.3998,-0.3991,-0.3977,-0.3956,-0.3942,-0.3933,-0.3924,-0.3906,-0.3883,-0.3895,-0.3888,-0.3893,-0.3877,-0.384,-0.3893,-0.3893,-0.3883,-0.3799,-0.3789,-0.3782,-0.3847,-0.3846,-0.3845,-0.38,0,-0.3969,-0.3932,-0.394,-0.3904,-0.3888,-0.3904,-0.3885,-0.3879,-0.3879,-0.3866,-0.3866,-0.385,-0.3867,-0.3863,-0.3848,-0.3848,-0.3823,-0.3851,-0.3831,-0.383,-0.3833,-0.3774,-0.3764,-0.3721,-0.3794,-0.3793,-0.3792,0,-0.3909,-0.3899,-0.3862,-0.3858,-0.3852,-0.3835,-0.3823,-0.381,-0.3803,-0.3805,-0.3797,-0.3806,-0.3784,-0.3806,-0.3777,-0.3796,-0.3788,-0.3787,-0.3786,-0.3784,-0.3809,-0.3771,-0.3707,-0.3701,-0.3783,-0.3784,-0.3784,0,-0.3865,-0.3842,-0.3817,-0.3813,-0.3808,-0.3796,-0.3793,-0.3788,-0.3779,-0.3769,-0.3763,-0.375,-0.3743,-0.3733,-0.3738,-0.3754,-0.3708,-0.3731,-0.3709,-0.3709,-0.3699,-0.37,-0.3633,-0.3693,-0.3694,-0.3694,-0.3694,0,-0.3812,-0.3789,-0.3797,-0.3782,-0.3757,-0.3765,-0.374,-0.3739,-0.3734,-0.3719,-0.3732,-0.3717,-0.3725,-0.3711,-0.3715,-0.369,-0.3687,-0.3688,-0.3689,-0.3687,-0.3687,-0.3682,-0.3685,-0.3692,-0.3692,-0.3693,-0.3693,0,-0.3759,-0.3764,-0.3738,-0.3735,-0.3734,-0.3716,-0.3714,-0.3699,-0.3701,-0.3682,-0.3678,-0.3681,-0.3665,-0.3669,-0.3652,-0.3654,-0.3624,-0.3629,-0.3626,-0.3628,-0.3606,-0.3608,-0.3535,-0.3526,-0.3591,-0.3591,-0.359,0,-0.3725,-0.3708,-0.3704,-0.3695,-0.3692,-0.3677,-0.3669,-0.3677,-0.3667,-0.3659,-0.3646,-0.3631,-0.362,-0.3594,-0.3594,-0.3581,-0.3586,-0.3561,-0.3584,-0.3583,-0.3587,-0.3588,-0.3586,-0.3557,-0.3556,-0.3555,-0.3555,0,-0.3665,-0.3668,-0.3656,-0.3645,-0.3635,-0.3626,-0.3618,-0.361,-0.3618,-0.3607,-0.3591,-0.3583,-0.3565,-0.3551,-0.3539,-0.3536,-0.3547,-0.3548,-0.3542,-0.354,-0.3539,-0.354,-0.3614,-0.3549,-0.355,-0.355,-0.3551,-0.3551,-0.362,-0.3606,-0.3602,-0.3588,-0.3583,-0.3576,-0.3563,-0.3564,-0.3551,-0.3538,-0.3543,-0.3525,-0.352,-0.3505,-0.3501,-0.3487,-0.3497,-0.3488,-0.3486,-0.3484,-0.3482,-0.3541,-0.3485,-0.3485,-0.3485,-0.3485,-0.3485,0,-0.3561,-0.356,-0.3547,-0.3536,-0.3525,-0.3537,-0.3529,-0.352,-0.3504,-0.3498,-0.3487,-0.347,-0.3456,-0.3455,-0.3443,-0.3432,-0.3436,-0.3428,-0.3429,-0.3428,-0.3474,-0.348,-0.3425,-0.3425,-0.3425,-0.3425,-0.3425,-0.3425,-0.3529,-0.3506,-0.3509,-0.3484,-0.3482,-0.3465,-0.346,-0.3453,-0.3449,-0.3429,-0.3418,-0.3418,-0.3414,-0.3401,-0.3389,-0.339,-0.3385,-0.3375,-0.3377,-0.3419,-0.3425,-0.3431,-0.3437,-0.3373,-0.3373,-0.3333,-0.3332,-0.3332]},{"header":{"parameterUnit":"m.s-1","parameterCategory":1,"la1":30.2991,"la2":30.254,"lo1":-89.0895,"lo2":-89.0444,"dy":0.0017,"dx":0.0017,"nx":28,"ny":28,"refTime":"2025-09-17T03:00:00:Z","depth":0,"parameterNumber":3,"parameterNumberName":"V-component_of_WINDS"},"data":[0,0,0,0,0,0,0,0,0,0,0,0,0,0,0,0,0,0,0,0,0,0,0,0,0,0,0,0,0,0,0,0,0,0,0,0,0,0,0,0,0,0,0,0,0,0,0,0,0,0,0,0,0,0,0,0,0,0,1.4018,1.4018,0,1.4016,1.4016,1.4016,1.4045,1.4046,1.4047,1.4047,1.4041,1.404,1.404,0,0,0,0,0,0,0,0,0,0,0,0,0,1.4042,1.4042,1.4018,1.4018,1.4018,1.4016,1.4016,1.4016,1.4045,1.4046,1.4047,1.4048,1.4042,1.4041,1.404,0,0,0,0,0,0,0,0,0,0,0,0,0,1.4035,1.4041,1.4018,1.4033,1.4034,1.4016,1.4016,1.4016,1.4045,1.4046,1.4047,1.4048,1.4042,1.4041,1.4039,1.4007,0,0,1.4035,1.4035,0,0,0,0,0,0,0,0,1.4035,1.4034,1.403,1.4032,1.4033,1.4032,1.4022,1.4013,1.4044,1.404,1.4047,1.4049,1.4037,1.4036,1.4033,1.4006,1.4006,1.4035,1.4034,1.4034,1.4033,0,0,0,0,0,0,0,1.4036,1.4034,1.4017,1.403,1.4032,1.4037,1.4037,1.402,1.4032,1.4041,1.4043,1.4043,1.4038,1.4034,1.4033,1.4006,1.4035,1.4034,1.4033,1.4032,1.3947,1.3946,0,0,0,0,0,0,1.4035,1.4034,1.4017,1.4017,1.4037,1.4036,1.4036,1.4031,1.4032,1.4034,1.4041,1.4044,1.4036,1.4035,1.4033,1.3991,1.4034,1.4032,1.4032,1.3948,1.3947,1.3945,0,0,0,0,0,0,1.4035,1.4033,1.4017,1.4026,1.4025,1.4034,1.4028,1.403,1.4027,1.4033,1.4034,1.4036,1.4037,1.4035,1.4012,1.3991,1.4032,1.403,1.395,1.3948,1.3946,1.3909,0,0,0,0,0,0,1.4036,1.4033,1.4022,1.4026,1.4024,1.3998,1.4027,1.4029,1.4025,1.4028,1.4028,1.4029,1.4038,1.4014,1.4011,1.399,1.4029,1.3952,1.3949,1.3946,1.3912,1.3906,1.3901,0,0,0,0,0,1.4037,1.4012,1.4022,1.402,1.4011,1.3997,1.3996,1.4007,1.4023,1.4011,1.4014,1.4029,1.3995,1.4011,1.4008,1.3987,1.3953,1.395,1.3947,1.3915,1.3907,1.3901,0,0,0,0,0,0,1.4006,1.4013,1.4024,1.4,1.3998,1.4002,1.3987,1.4,1.3992,1.3995,1.4009,1.4008,1.3982,1.3983,1.4001,1.3952,1.3976,1.3972,1.3953,1.3946,1.394,1.3939,1.4028,0,0,0,0,0,1.3996,1.3986,1.3993,1.3971,1.3969,1.3978,1.3973,1.3982,1.3979,1.3978,1.398,1.3975,1.3963,1.3955,1.3945,1.3913,1.3911,1.3896,1.389,1.3886,1.3881,1.3859,1.3852,1.3934,1.3934,1.3934,0,0,1.3977,1.3979,1.3972,1.3965,1.3964,1.395,1.3977,1.3963,1.3952,1.3976,1.3953,1.3954,1.395,1.3921,1.3909,1.3921,1.3858,1.3881,1.3878,1.3876,1.3855,1.3847,1.384,1.3932,1.3932,1.3933,0,0,1.3933,1.3936,1.3916,1.3914,1.3913,1.3918,1.3913,1.3915,1.3916,1.3895,1.3911,1.3897,1.3877,1.3872,1.3867,1.3818,1.3829,1.3814,1.3783,1.3762,1.3755,1.3749,1.3728,1.372,1.381,1.381,1.381,0,1.3908,1.389,1.3904,1.3887,1.3882,1.3903,1.3881,1.3879,1.3873,1.3867,1.3882,1.3854,1.3853,1.3821,1.3809,1.3805,1.3797,1.3813,1.3755,1.375,1.3744,1.3724,1.3716,1.3808,1.3808,1.3808,1.3808,0,1.3857,1.3844,1.3828,1.3822,1.3815,1.3796,1.3805,1.3796,1.3804,1.3807,1.3782,1.3782,1.3769,1.3763,1.3772,1.3731,1.3738,1.3754,1.3777,1.3734,1.3715,1.3707,1.3805,1.3805,1.3806,1.3807,0,0,1.3795,1.3795,1.3789,1.3784,1.3783,1.3771,1.3752,1.374,1.373,1.3725,1.3706,1.3687,1.37,1.3694,1.3702,1.3684,1.3639,1.3701,1.3701,1.3686,1.3589,1.3575,1.3566,1.3648,1.3647,1.3646,1.3588,0,1.3749,1.3717,1.3728,1.3693,1.3679,1.3697,1.3679,1.3675,1.3676,1.3663,1.3664,1.3649,1.367,1.3665,1.3649,1.3649,1.362,1.3653,1.3627,1.3626,1.3625,1.3557,1.3543,1.3489,1.3581,1.358,1.3579,0,1.3693,1.3684,1.3649,1.3646,1.364,1.3624,1.3612,1.36,1.3593,1.3596,1.3587,1.3598,1.3575,1.36,1.3566,1.3589,1.3579,1.3577,1.3575,1.357,1.3598,1.3547,1.3473,1.3463,1.3568,1.3569,1.357,0,1.3646,1.3626,1.3601,1.3597,1.3595,1.3582,1.358,1.3575,1.3566,1.3555,1.3548,1.3535,1.3526,1.3514,1.3519,1.3538,1.3482,1.3509,1.348,1.348,1.3466,1.3467,1.3385,1.3465,1.3465,1.3465,1.3465,0,1.3592,1.3569,1.358,1.3564,1.3537,1.3548,1.352,1.352,1.3514,1.3497,1.3512,1.3495,1.3504,1.3486,1.349,1.3459,1.3456,1.3455,1.3455,1.3451,1.3451,1.3443,1.3446,1.3463,1.3464,1.3464,1.3464,0,1.3535,1.3542,1.3515,1.3514,1.3513,1.3492,1.349,1.3474,1.3476,1.3453,1.3448,1.3451,1.3431,1.3435,1.3413,1.3415,1.3374,1.3382,1.3377,1.3377,1.3346,1.3348,1.3255,1.3241,1.3333,1.3332,1.3331,0,1.3499,1.3481,1.3478,1.3467,1.3464,1.3447,1.3438,1.3447,1.3436,1.3425,1.3409,1.339,1.3375,1.3341,1.3339,1.3321,1.3326,1.3294,1.3323,1.3318,1.332,1.332,1.3316,1.3288,1.3287,1.3286,1.3285,0,1.3434,1.3437,1.3424,1.341,1.3398,1.3387,1.3378,1.3368,1.3376,1.3362,1.3342,1.333,1.3306,1.3285,1.3268,1.3263,1.3273,1.3276,1.3268,1.3262,1.3258,1.3256,1.3357,1.3278,1.3279,1.3279,1.328,1.328,1.3384,1.3367,1.3361,1.3344,1.3337,1.3328,1.3311,1.3311,1.3294,1.3276,1.3282,1.3257,1.3247,1.3224,1.3217,1.3196,1.3207,1.3196,1.3193,1.3189,1.3183,1.3264,1.3193,1.3193,1.3193,1.3194,1.3194,0,1.3315,1.3312,1.3296,1.3282,1.3267,1.3281,1.327,1.3256,1.3235,1.3225,1.3209,1.3183,1.3162,1.3158,1.3137,1.3121,1.3124,1.3114,1.3114,1.3112,1.3176,1.3184,1.3111,1.3111,1.3111,1.3111,1.3111,1.3111,1.3278,1.3249,1.3251,1.3218,1.3214,1.319,1.3182,1.3172,1.3164,1.3134,1.3117,1.3115,1.3106,1.3084,1.3064,1.3063,1.3052,1.3039,1.304,1.31,1.3108,1.3116,1.3122,1.3038,1.3038,1.2976,1.2976,1.2975]}]]